Regional Weather Roundup
Issued by NWS

Current Version | Previous Version | Text Only | Print | Product List | Glossary On
Versions: 1 2 3 4 5 6 7 8 9 10 11 12 13 14 15 16 17 18 19 20 21 22 23 24 25 26 27 28 29 30 31 32 33 34 35 36 37 38 39 40 41 42 43 44 45 46 47 48 49 50
450
ASCA42 TJSJ 210210
RWRPR
PUERTO RICO/U.S. VIRGIN ISLANDS HOURLY WEATHER ROUNDUP
NATIONAL WEATHER SERVICE SAN JUAN PR
1000 PM AST SUN OCT 20 2019

PRZ001>002-007>008-010-210300-
PUERTO RICO

CITY           SKY/WX    TMP DP  RH WIND       PRES   REMARKS
SAN JUAN LMM   PTCLDY    82  75  78 CALM      30.00R
AGUADILLA      CLEAR     75  73  94 SE3       30.02R
CEIBA          PTCLDY    79  75  89 N5        30.01S
$$

VIZ001>002-210300-
U.S. VIRGIN ISLANDS

CITY           SKY/WX    TMP DP  RH WIND       PRES   REMARKS
CHARLOTTE AMA  CLEAR     82  73  74 NE3       29.99R
CHRISTIANSTED  CLEAR     79  73  83 NE5       29.99R
$$

HOURLY WEATHER ROUNDUP FOR THE NEWS MEDIA

CITY           SKY/WX    TMP DP  RH WIND       PRES   REMARKS
ORLANDO        FAIR      79  69  71 NW3       29.96R
NEW YORK       LGT RAIN  52  52 100 NE13      30.00S
NEWARK         LGT RAIN  53  51  93 NE5       29.99S
CHICAGO        FOG       49  47  93 E9        29.92S VSB 1
HARTFORD       CLOUDY    53  49  86 NE3       30.03S
BOSTON         CLOUDY    57  49  74 SE8       30.05F
DALLAS         TSTM      83  68  60 E17G30    29.53F
PHILADELPHIA   LGT RAIN  53  50  89 NE13      29.96  FOG
LOS ANGELES    CLEAR     81  46  29 W10       29.84R
WASHINGTON DC  MOCLDY    54  52  93 N12       29.96R



USA.gov is the U.S. government's official web portal to all federal, state and local government web resources and services.